Weather History for Galliano, LA

Change the Weather History Date:

Wednesday, February 6, 2013

  Actual Average (KAXO) Record (KAXO)
Temperature  
Mean Temperature 46 °F -  
Max Temperature 68 °F 58 °F 69 °F (1999)
Min Temperature 23 °F 55 °F 37 °F (2014)
Degree Days  
Heating Degree Days 20    
Moisture  
Dew Point 49 °F    
Average Humidity 93    
Maximum Humidity 100    
Minimum Humidity 73    
Precipitation  
Precipitation 0.04 in - - ()
Sea Level Pressure  
Sea Level Pressure 30.03 in    
Wind  
Wind Speed 5 mph (NE)    
Max Wind Speed 15 mph    
Max Gust Speed 22 mph    
Visibility 6 miles    
Events Fog , Rain , Snow    
Averages and records for this station are not official NWS values.
T = Trace of Precipitation, MM = Missing Value Source: NWS Daily Summary

Daily Weather History Graph

Daily Weather History Graph

Search for Another Location

Airport:

Trip Planner

Search our weather history database for the weather conditions in past years. The results will help you decide how hot, cold, wet, or windy it might be!

Date:

Astronomy

Feb. 06, 2013 Rise Set
Actual Time 6:47 AM CST 5:43 PM CST
Civil Twilight 6:22 AM CST 6:08 PM CST
Nautical Twilight 5:54 AM CST 6:36 PM CST
Astronomical Twilight 5:26 AM CST 7:04 PM CST
Moon 3:22 AM CST (2/6) 2:10 PM CST (2/6)
Length of Visible Light 11h 45m
Length of Day
10h 56m
Waning Crescent, 17% of the Moon is Illuminated
Feb 6
Waning Crescent
Feb 10
New
Feb 17
First Quarter
Feb 25
Full
Mar 4
Last Quarter

Hourly Weather History & Observations

Time (CST) Temp. Windchill Dew Point Humidity Pressure Visibility Wind Dir Wind Speed Gust Speed Precip Events Conditions
12:15 AM 46.4 °F - 46.4 °F 100% 30.03 in 0.8 mi Calm Calm - N/A   Mist
12:35 AM 46.4 °F - 46.4 °F 100% 30.02 in 5.0 mi Calm Calm - N/A   Mist
12:55 AM 46.4 °F - 46.4 °F 100% 30.03 in 0.5 mi Calm Calm - N/A Fog Fog
1:15 AM 46.4 °F - 46.4 °F 100% 30.03 in 0.2 mi Calm Calm - N/A Fog Fog
1:35 AM 44.6 °F - 44.6 °F 100% 30.03 in 0.2 mi Calm Calm - N/A Fog Fog
1:55 AM 44.6 °F - 44.6 °F 100% 30.04 in 0.2 mi Calm Calm - N/A Fog Fog
2:15 AM 44.6 °F - 44.6 °F 100% 30.03 in 0.8 mi Calm Calm - N/A   Mist
2:35 AM 44.6 °F - 44.6 °F 100% 30.03 in 0.5 mi Calm Calm - N/A Fog Fog
2:55 AM 44.6 °F - 44.6 °F 100% 30.03 in 0.5 mi Calm Calm - N/A Fog Fog
3:15 AM 42.8 °F - 42.8 °F 100% 30.03 in 0.2 mi Calm Calm - N/A Fog Fog
3:35 AM 42.8 °F - 42.8 °F 100% 30.05 in 0.2 mi Calm Calm - N/A Fog Fog
3:55 AM 42.8 °F - 42.8 °F 100% 30.04 in 0.2 mi Calm Calm - N/A   Unknown
4:15 AM 42.8 °F - 42.8 °F 100% 30.04 in 0.2 mi Calm Calm - N/A Fog Fog
4:35 AM 42.8 °F 41.1 °F 42.8 °F 100% 30.05 in 0.5 mi North 3.5 mph - N/A Fog Fog
4:55 AM 42.8 °F - 42.8 °F 100% 30.05 in 0.2 mi Calm Calm - N/A Fog Fog
5:15 AM 39.2 °F - 39.2 °F 100% 30.06 in 0.2 mi Calm Calm - N/A Fog Fog
5:35 AM 37.4 °F - 37.4 °F 100% 30.07 in 0.2 mi Calm Calm - N/A Fog Fog
5:55 AM 37.4 °F - 37.4 °F 100% 30.06 in 0.2 mi Calm Calm - N/A Fog Fog
6:15 AM 26.6 °F 20.0 °F 26.6 °F 100% 30.07 in 0.2 mi ENE 5.8 mph - N/A Snow Light Snow
6:35 AM 26.6 °F 16.8 °F 26.6 °F 100% 30.08 in 0.5 mi NNE 10.4 mph - N/A Snow Light Snow
6:55 AM 26.6 °F 20.0 °F 26.6 °F 100% 30.09 in 0.5 mi NE 5.8 mph - N/A Fog Light Freezing Fog
7:15 AM 26.6 °F 18.2 °F 26.6 °F 100% 30.10 in 0.2 mi ENE 8.1 mph - N/A Fog Light Freezing Fog
7:35 AM 26.6 °F 19.1 °F 26.6 °F 100% 30.10 in 0.2 mi ENE 6.9 mph - N/A Fog Light Freezing Fog
7:55 AM 26.6 °F 18.2 °F 26.6 °F 100% 30.12 in 0.2 mi ENE 8.1 mph - N/A Fog Light Freezing Fog
8:15 AM 24.8 °F 14.0 °F 24.8 °F 100% 30.12 in 0.5 mi ENE 11.5 mph - N/A Fog Light Freezing Fog
8:55 AM 23.0 °F 12.4 °F 23.0 °F 100% 30.12 in 3.0 mi NE 10.4 mph - N/A   Mist
9:15 AM 23.0 °F 14.7 °F 23.0 °F 100% 30.12 in 10.0 mi ENE 6.9 mph 10.4 mph N/A   Unknown
9:35 AM 23.0 °F 13.9 °F 23.0 °F 100% 30.12 in 10.0 mi ENE 8.1 mph - N/A   Unknown
9:55 AM 23.0 °F 12.4 °F 23.0 °F 100% 30.12 in 10.0 mi ENE 10.4 mph - N/A   Unknown
10:15 AM 24.8 °F 13.4 °F 24.8 °F 100% 30.11 in 10.0 mi ENE 12.7 mph - N/A   Unknown
10:35 AM 26.6 °F 16.2 °F 26.6 °F 100% 30.11 in 10.0 mi ENE 11.5 mph 17.3 mph N/A   Unknown
10:55 AM 35.6 °F 27.5 °F 33.8 °F 93% 30.11 in 10.0 mi ENE 11.5 mph 17.3 mph N/A   Unknown
11:15 AM 60.8 °F - 55.4 °F 82% 30.10 in 10.0 mi ENE 11.5 mph 17.3 mph N/A   Unknown
11:35 AM 66.2 °F - 60.8 °F 83% 30.10 in 10.0 mi ENE 11.5 mph 18.4 mph N/A   Unknown
11:55 AM 68.0 °F - 60.8 °F 78% 30.09 in 10.0 mi ENE 12.7 mph 16.1 mph N/A   Unknown
12:15 PM 68.0 °F - 60.8 °F 78% 30.07 in 10.0 mi ENE 12.7 mph 19.6 mph N/A   Unknown
12:35 PM 68.0 °F - 60.8 °F 78% 30.07 in 10.0 mi ENE 10.4 mph 17.3 mph N/A   Unknown
12:55 PM 68.0 °F - 60.8 °F 78% 30.06 in 10.0 mi ENE 11.5 mph 17.3 mph N/A   Unknown
1:15 PM 68.0 °F - 60.8 °F 78% 30.04 in 10.0 mi ENE 12.7 mph 17.3 mph N/A   Unknown
1:35 PM 68.0 °F - 59.0 °F 73% 30.04 in 10.0 mi ENE 12.7 mph 20.7 mph N/A   Unknown
1:55 PM 66.2 °F - 59.0 °F 78% 30.04 in 10.0 mi ENE 13.8 mph 18.4 mph N/A   Unknown
2:15 PM 64.4 °F - 59.0 °F 83% 30.03 in 10.0 mi ENE 10.4 mph 19.6 mph N/A   Unknown
2:35 PM 66.2 °F - 60.8 °F 83% 30.03 in 10.0 mi East 12.7 mph 17.3 mph N/A   Unknown
2:55 PM 66.2 °F - 59.0 °F 78% 30.03 in 10.0 mi ENE 10.4 mph 16.1 mph N/A   Unknown
3:15 PM 66.2 °F - 59.0 °F 78% 30.03 in 10.0 mi East 12.7 mph 16.1 mph N/A   Unknown
3:35 PM 66.2 °F - 60.8 °F 83% 30.02 in 10.0 mi ENE 10.4 mph - N/A   Unknown
3:55 PM 64.4 °F - 60.8 °F 88% 30.01 in 10.0 mi ENE 11.5 mph 17.3 mph N/A   Unknown
4:15 PM 64.4 °F - 60.8 °F 88% 30.02 in 10.0 mi ENE 10.4 mph - N/A   Unknown
4:35 PM 64.4 °F - 60.8 °F 88% 30.02 in 10.0 mi NE 8.1 mph - N/A   Unknown
4:55 PM 64.4 °F - 60.8 °F 88% 30.01 in 10.0 mi NE 10.4 mph 17.3 mph N/A   Unknown
5:15 PM 64.4 °F - 60.8 °F 88% 30.02 in 10.0 mi NE 9.2 mph - N/A   Unknown
5:35 PM 64.4 °F - 60.8 °F 88% 30.00 in 10.0 mi NE 9.2 mph - N/A   Unknown
5:55 PM 64.4 °F - 60.8 °F 88% 29.97 in 10.0 mi NE 12.7 mph 18.4 mph N/A   Unknown
6:15 PM 62.6 °F - 60.8 °F 94% 29.97 in 10.0 mi ENE 11.5 mph - N/A   Unknown
6:35 PM 62.6 °F - 60.8 °F 94% 29.98 in 10.0 mi ENE 11.5 mph 17.3 mph N/A   Unknown
6:55 PM 64.4 °F - 60.8 °F 88% 29.96 in 10.0 mi ENE 15.0 mph - N/A   Unknown
7:15 PM 64.4 °F - 60.8 °F 88% 29.94 in 10.0 mi ENE 15.0 mph 21.9 mph N/A   Unknown
7:35 PM 64.4 °F - 60.8 °F 88% 29.96 in 10.0 mi ENE 10.4 mph 20.7 mph N/A   Unknown
7:55 PM 64.4 °F - 60.8 °F 88% 29.98 in 10.0 mi ENE 9.2 mph - N/A   Unknown
8:15 PM 62.6 °F - 60.8 °F 94% 29.99 in 10.0 mi ENE 9.2 mph - N/A Rain Light Rain
8:35 PM 62.6 °F - 60.8 °F 94% 29.98 in 10.0 mi NE 10.4 mph - N/A Rain Light Rain
8:55 PM 62.6 °F - 60.8 °F 94% 29.99 in 5.0 mi NNE 9.2 mph - 0.01 in Rain Rain
9:15 PM 62.6 °F - 60.8 °F 94% 29.99 in 5.0 mi NE 10.4 mph - N/A Rain Rain
9:35 PM 60.8 °F - 59.0 °F 94% 29.98 in 5.0 mi NE 8.1 mph - N/A Rain Rain
9:55 PM 59.0 °F - 59.0 °F 100% 29.97 in 5.0 mi NNE 13.8 mph - 0.01 in Rain Rain
10:15 PM 57.2 °F - 57.2 °F 100% 29.96 in 4.0 mi NE 8.1 mph - 0.01 in Rain Heavy Rain
10:35 PM 55.4 °F - 55.4 °F 100% 29.96 in 2.5 mi NNE 10.4 mph 16.1 mph 0.02 in Rain Heavy Rain
10:55 PM 55.4 °F - 55.4 °F 100% 29.97 in 3.0 mi NE 8.1 mph - 0.02 in Rain Heavy Rain
11:15 PM 55.4 °F - 55.4 °F 100% 29.94 in 4.0 mi NNE 11.5 mph 19.6 mph N/A Rain Light Rain
11:35 PM 55.4 °F - 55.4 °F 100% 29.91 in 7.0 mi ENE 11.5 mph 17.3 mph N/A Rain Light Rain
11:55 PM 55.4 °F - 55.4 °F 100% 29.91 in 7.0 mi ENE 11.5 mph - N/A Rain Light Rain